Year,Month,Day,Hour,Minute,Value (Times are PST for temperature in C)
2009,08,05,00,00,15.00
2009,08,05,00,01,15.00
2009,08,05,00,02,15.00
2009,08,05,00,03,15.00
2009,08,05,00,04,15.00
2009,08,05,00,05,15.00
2009,08,05,00,06,15.00
2009,08,05,00,07,15.00
2009,08,05,00,08,15.00
2009,08,05,00,09,15.00
2009,08,05,00,10,15.00
2009,08,05,00,11,15.00
2009,08,05,00,12,15.00
2009,08,05,00,13,15.00
2009,08,05,00,14,15.00
2009,08,05,00,15,15.00
2009,08,05,00,16,15.00
2009,08,05,00,17,15.00
2009,08,05,00,18,15.00
2009,08,05,00,19,15.00
2009,08,05,00,20,15.00
2009,08,05,00,21,15.00
2009,08,05,00,22,15.00
2009,08,05,00,23,15.00
2009,08,05,00,24,15.00
2009,08,05,00,25,15.00
2009,08,05,00,26,15.00
2009,08,05,00,27,15.00
2009,08,05,00,28,15.00
2009,08,05,00,29,15.00
2009,08,05,00,30,15.00
2009,08,05,00,31,15.00
2009,08,05,00,32,14.90
2009,08,05,00,33,14.90
2009,08,05,00,34,14.90
2009,08,05,00,35,14.90
2009,08,05,00,36,14.90
2009,08,05,00,37,14.90
2009,08,05,00,38,14.90
2009,08,05,00,39,14.80
2009,08,05,00,40,14.80
2009,08,05,00,41,14.80
2009,08,05,00,42,14.80
2009,08,05,00,43,14.80
2009,08,05,00,44,14.80
2009,08,05,00,45,14.80
2009,08,05,00,46,14.80
2009,08,05,00,47,14.80
2009,08,05,00,48,14.80
2009,08,05,00,49,14.80
2009,08,05,00,50,14.80
2009,08,05,00,51,14.70
2009,08,05,00,52,14.70
2009,08,05,00,53,14.70
2009,08,05,00,54,14.70
2009,08,05,00,55,14.70
2009,08,05,00,56,14.70
2009,08,05,00,57,14.70
2009,08,05,00,58,14.70
2009,08,05,00,59,14.60
2009,08,05,01,00,14.70
2009,08,05,01,01,14.70
2009,08,05,01,02,14.70
2009,08,05,01,03,14.70
2009,08,05,01,04,14.70
2009,08,05,01,05,14.70
2009,08,05,01,06,14.70
2009,08,05,01,07,14.70
2009,08,05,01,08,14.70
2009,08,05,01,09,14.70
2009,08,05,01,10,14.70
2009,08,05,01,11,14.70
2009,08,05,01,12,14.70
2009,08,05,01,13,14.60
2009,08,05,01,14,14.60
2009,08,05,01,15,14.60
2009,08,05,01,16,14.60
2009,08,05,01,17,14.60
2009,08,05,01,18,14.60
2009,08,05,01,19,14.60
2009,08,05,01,20,14.60
2009,08,05,01,21,14.60
2009,08,05,01,22,14.60
2009,08,05,01,23,14.60
2009,08,05,01,24,14.60
2009,08,05,01,25,14.60
2009,08,05,01,26,14.60
2009,08,05,01,27,14.60
2009,08,05,01,28,14.60
2009,08,05,01,29,14.60
2009,08,05,01,30,14.60
2009,08,05,01,31,14.60
2009,08,05,01,32,14.60
2009,08,05,01,33,14.60
2009,08,05,01,34,14.60
2009,08,05,01,35,14.60
2009,08,05,01,36,14.50
2009,08,05,01,37,14.50
2009,08,05,01,38,14.50
2009,08,05,01,39,14.50
2009,08,05,01,40,14.50
2009,08,05,01,41,14.50
2009,08,05,01,42,14.50
2009,08,05,01,43,14.40
2009,08,05,01,44,14.40
2009,08,05,01,45,14.40
2009,08,05,01,46,14.40
2009,08,05,01,47,14.50
2009,08,05,01,48,14.40
2009,08,05,01,49,14.40
2009,08,05,01,50,14.40
2009,08,05,01,51,14.40
2009,08,05,01,52,14.40
2009,08,05,01,53,14.40
2009,08,05,01,54,14.40
2009,08,05,01,55,14.40
2009,08,05,01,56,14.40
2009,08,05,01,57,14.40
2009,08,05,01,58,14.40
2009,08,05,01,59,14.40
2009,08,05,02,00,14.40
2009,08,05,02,01,14.40
2009,08,05,02,02,14.40
2009,08,05,02,03,14.40
2009,08,05,02,04,14.40
2009,08,05,02,05,14.40
2009,08,05,02,06,14.40
2009,08,05,02,07,14.40
2009,08,05,02,08,14.40
2009,08,05,02,09,14.40
2009,08,05,02,10,14.40
2009,08,05,02,11,14.40
2009,08,05,02,12,14.30
2009,08,05,02,13,14.30
2009,08,05,02,14,14.30
2009,08,05,02,15,14.30
2009,08,05,02,16,14.30
2009,08,05,02,17,14.30
2009,08,05,02,18,14.30
2009,08,05,02,19,14.30
2009,08,05,02,20,14.30
2009,08,05,02,21,14.30
2009,08,05,02,22,14.30
2009,08,05,02,23,14.30
2009,08,05,02,24,14.30
2009,08,05,02,25,14.30
2009,08,05,02,26,14.30
2009,08,05,02,27,14.30
2009,08,05,02,28,14.30
2009,08,05,02,29,14.30
2009,08,05,02,30,14.30
2009,08,05,02,31,14.40
2009,08,05,02,32,14.40
2009,08,05,02,33,14.40
2009,08,05,02,34,14.40
2009,08,05,02,35,14.40
2009,08,05,02,36,14.40
2009,08,05,02,37,14.40
2009,08,05,02,38,14.40
2009,08,05,02,39,14.40
2009,08,05,02,40,14.40
2009,08,05,02,41,14.40
2009,08,05,02,42,14.40
2009,08,05,02,43,14.40
2009,08,05,02,44,14.40
2009,08,05,02,45,14.40
2009,08,05,02,46,14.40
2009,08,05,02,47,14.40
2009,08,05,02,48,14.40
2009,08,05,02,49,14.40
2009,08,05,02,50,14.40
2009,08,05,02,51,14.40
2009,08,05,02,52,14.40
2009,08,05,02,53,14.40
2009,08,05,02,54,14.40
2009,08,05,02,55,14.40
2009,08,05,02,56,14.40
2009,08,05,02,57,14.40
2009,08,05,02,58,14.40
2009,08,05,02,59,14.40
2009,08,05,03,00,14.40
2009,08,05,03,01,14.40
2009,08,05,03,02,14.40
2009,08,05,03,03,14.40
2009,08,05,03,04,14.40
2009,08,05,03,05,14.40
2009,08,05,03,06,14.40
2009,08,05,03,07,14.40
2009,08,05,03,08,14.40
2009,08,05,03,09,14.40
2009,08,05,03,10,14.40
2009,08,05,03,11,14.40
2009,08,05,03,12,14.40
2009,08,05,03,13,14.40
2009,08,05,03,14,14.40
2009,08,05,03,15,14.40
2009,08,05,03,16,14.40
2009,08,05,03,17,14.40
2009,08,05,03,18,14.40
2009,08,05,03,19,14.40
2009,08,05,03,20,14.40
2009,08,05,03,21,14.40
2009,08,05,03,22,14.40
2009,08,05,03,23,14.40
2009,08,05,03,24,14.40
2009,08,05,03,25,14.40
2009,08,05,03,26,14.40
2009,08,05,03,27,14.40
2009,08,05,03,28,14.40
2009,08,05,03,29,14.40
2009,08,05,03,30,14.40
2009,08,05,03,31,14.40
2009,08,05,03,32,14.40
2009,08,05,03,33,14.40
2009,08,05,03,34,14.50
2009,08,05,03,35,14.50
2009,08,05,03,36,14.50
2009,08,05,03,37,14.50
2009,08,05,03,38,14.50
2009,08,05,03,39,14.50
2009,08,05,03,40,14.50
2009,08,05,03,41,14.50
2009,08,05,03,42,14.60
2009,08,05,03,43,14.60
2009,08,05,03,44,14.50
2009,08,05,03,45,14.60
2009,08,05,03,46,14.60
2009,08,05,03,47,14.60
2009,08,05,03,48,14.60
2009,08,05,03,49,14.60
2009,08,05,03,50,14.50
2009,08,05,03,51,14.50
2009,08,05,03,52,14.50
2009,08,05,03,53,14.50
2009,08,05,03,54,14.50
2009,08,05,03,55,14.50
2009,08,05,03,56,14.50
2009,08,05,03,57,14.50
2009,08,05,03,58,14.50
2009,08,05,03,59,14.50
2009,08,05,04,00,14.50
2009,08,05,04,01,14.50
2009,08,05,04,02,14.50
2009,08,05,04,03,14.50
2009,08,05,04,04,14.50
2009,08,05,04,05,14.50
2009,08,05,04,06,14.50
2009,08,05,04,07,14.50
2009,08,05,04,08,14.50
2009,08,05,04,09,14.50
2009,08,05,04,10,14.50
2009,08,05,04,11,14.40
2009,08,05,04,12,14.40
2009,08,05,04,13,14.40
2009,08,05,04,14,14.40
2009,08,05,04,15,14.40
2009,08,05,04,16,14.40
2009,08,05,04,17,14.40
2009,08,05,04,18,14.40
2009,08,05,04,19,14.40
2009,08,05,04,20,14.40
2009,08,05,04,21,14.40
2009,08,05,04,22,14.40
2009,08,05,04,23,14.40
2009,08,05,04,24,14.40
2009,08,05,04,25,14.40
2009,08,05,04,26,14.40
2009,08,05,04,27,14.40
2009,08,05,04,28,14.40
2009,08,05,04,29,14.30
2009,08,05,04,30,14.30
2009,08,05,04,31,14.30
2009,08,05,04,32,14.30
2009,08,05,04,33,14.30
2009,08,05,04,34,14.30
2009,08,05,04,35,14.30
2009,08,05,04,36,14.30
2009,08,05,04,37,14.30
2009,08,05,04,38,14.30
2009,08,05,04,39,14.20
2009,08,05,04,40,14.20
2009,08,05,04,41,14.20
2009,08,05,04,42,14.20
2009,08,05,04,43,14.20
2009,08,05,04,44,14.20
2009,08,05,04,45,14.20
2009,08,05,04,46,14.20
2009,08,05,04,47,14.20
2009,08,05,04,48,14.20
2009,08,05,04,49,14.20
2009,08,05,04,50,14.20
2009,08,05,04,51,14.20
2009,08,05,04,52,14.20
2009,08,05,04,53,14.20
2009,08,05,04,54,14.20
2009,08,05,04,55,14.20
2009,08,05,04,56,14.20
2009,08,05,04,57,14.30
2009,08,05,04,58,14.30
2009,08,05,04,59,14.30
2009,08,05,05,00,14.30
2009,08,05,05,01,14.30
2009,08,05,05,02,14.30
2009,08,05,05,03,14.30
2009,08,05,05,04,14.30
2009,08,05,05,05,14.30
2009,08,05,05,06,14.30
2009,08,05,05,07,14.30
2009,08,05,05,08,14.30
2009,08,05,05,09,14.30
2009,08,05,05,10,14.30
2009,08,05,05,11,14.30
2009,08,05,05,12,14.30
2009,08,05,05,13,14.30
2009,08,05,05,14,14.30
2009,08,05,05,15,14.30
2009,08,05,05,16,14.30
2009,08,05,05,17,14.40
2009,08,05,05,18,14.40
2009,08,05,05,19,14.30
2009,08,05,05,20,14.40
2009,08,05,05,21,14.40
2009,08,05,05,22,14.40
2009,08,05,05,23,14.40
2009,08,05,05,24,14.40
2009,08,05,05,25,14.40
2009,08,05,05,26,14.40
2009,08,05,05,27,14.40
2009,08,05,05,28,14.40
2009,08,05,05,29,14.40
2009,08,05,05,30,14.40
2009,08,05,05,31,14.40
2009,08,05,05,32,14.40
2009,08,05,05,33,14.50
2009,08,05,05,34,14.50
2009,08,05,05,35,14.50
2009,08,05,05,36,14.50
2009,08,05,05,37,14.50
2009,08,05,05,38,14.50
2009,08,05,05,39,14.50
2009,08,05,05,40,14.40
2009,08,05,05,41,14.40
2009,08,05,05,42,14.40
2009,08,05,05,43,14.40
2009,08,05,05,44,14.40
2009,08,05,05,45,14.40
2009,08,05,05,46,14.40
2009,08,05,05,47,14.40
2009,08,05,05,48,14.40
2009,08,05,05,49,14.40
2009,08,05,05,50,14.40
2009,08,05,05,51,14.40
2009,08,05,05,52,14.40
2009,08,05,05,53,14.40
2009,08,05,05,54,14.40
2009,08,05,05,55,14.50
2009,08,05,05,56,14.50
2009,08,05,05,57,14.50
2009,08,05,05,58,14.50
2009,08,05,05,59,14.40
2009,08,05,06,00,14.50
2009,08,05,06,01,14.50
2009,08,05,06,02,14.50
2009,08,05,06,03,14.50
2009,08,05,06,04,14.50
2009,08,05,06,05,14.50
2009,08,05,06,06,14.50
2009,08,05,06,07,14.50
2009,08,05,06,08,14.50
2009,08,05,06,09,14.50
2009,08,05,06,10,14.50
2009,08,05,06,11,14.50
2009,08,05,06,12,14.50
2009,08,05,06,13,14.50
2009,08,05,07,36,14.30
2009,08,05,07,37,14.30
2009,08,05,07,38,14.30
2009,08,05,07,39,14.30
2009,08,05,07,40,14.30
2009,08,05,07,41,14.30
2009,08,05,07,42,14.30
2009,08,05,07,43,14.30
2009,08,05,07,44,14.30
2009,08,05,07,45,14.30
2009,08,05,07,46,14.20
2009,08,05,07,47,14.30
2009,08,05,07,48,14.30
2009,08,05,07,49,14.30
2009,08,05,07,50,14.30
2009,08,05,07,51,14.30
2009,08,05,07,52,14.30
2009,08,05,07,53,14.30
2009,08,05,07,54,14.30
2009,08,05,07,55,14.30
2009,08,05,07,56,14.30
2009,08,05,07,57,14.30
2009,08,05,07,58,14.30
2009,08,05,07,59,14.30
2009,08,05,08,00,14.30
2009,08,05,08,01,14.20
2009,08,05,08,02,14.20
2009,08,05,08,03,14.30
2009,08,05,08,04,14.30
2009,08,05,08,05,14.30
2009,08,05,08,06,14.20
2009,08,05,08,07,14.20
2009,08,05,08,08,14.20
2009,08,05,08,09,14.20
2009,08,05,08,10,14.30
2009,08,05,08,11,14.30
2009,08,05,08,12,14.30
2009,08,05,08,13,14.30
2009,08,05,08,14,14.30
2009,08,05,08,15,14.30
2009,08,05,08,16,14.30
2009,08,05,08,17,14.30
2009,08,05,08,18,14.30
2009,08,05,08,19,14.30
2009,08,05,08,20,14.30
2009,08,05,08,21,14.30
2009,08,05,08,22,14.40
2009,08,05,08,23,14.40
2009,08,05,08,24,14.40
2009,08,05,08,25,14.40
2009,08,05,08,26,14.40
2009,08,05,08,27,14.40
2009,08,05,08,28,14.40
2009,08,05,08,29,14.40
2009,08,05,08,30,14.40
2009,08,05,08,31,14.40
2009,08,05,08,32,14.40
2009,08,05,08,33,14.40
2009,08,05,08,34,14.40
2009,08,05,08,35,14.40
2009,08,05,08,36,14.40
2009,08,05,08,37,14.40
2009,08,05,08,38,14.40
2009,08,05,08,39,14.40
2009,08,05,08,40,14.40
2009,08,05,08,41,14.50
2009,08,05,08,42,14.50
2009,08,05,08,43,14.50
2009,08,05,08,44,14.50
2009,08,05,08,45,14.50
2009,08,05,08,46,14.50
2009,08,05,08,47,14.40
2009,08,05,08,48,14.40
2009,08,05,08,49,14.40
2009,08,05,08,50,14.40
2009,08,05,08,51,14.40
2009,08,05,08,52,14.40
2009,08,05,08,53,14.40
2009,08,05,08,54,14.40
2009,08,05,08,55,14.40
2009,08,05,08,56,14.40
2009,08,05,08,57,14.40
2009,08,05,08,58,14.40
2009,08,05,08,59,14.40
2009,08,05,09,00,14.40
2009,08,05,09,01,14.40
2009,08,05,09,02,14.40
2009,08,05,09,03,14.40
2009,08,05,09,04,14.40
2009,08,05,09,05,14.40
2009,08,05,09,06,14.30
2009,08,05,09,07,14.30
2009,08,05,09,08,14.30
2009,08,05,09,09,14.30
2009,08,05,09,10,14.30
2009,08,05,09,11,14.30
2009,08,05,09,12,14.30
2009,08,05,09,13,14.30
2009,08,05,09,14,14.30
2009,08,05,09,15,14.30
2009,08,05,09,16,14.30
2009,08,05,09,17,14.30
2009,08,05,09,18,14.30
2009,08,05,09,19,14.40
2009,08,05,09,20,14.40
2009,08,05,09,21,14.40
2009,08,05,09,22,14.40
2009,08,05,09,23,14.40
2009,08,05,09,24,14.40
2009,08,05,09,25,14.40
2009,08,05,09,26,14.50
2009,08,05,09,27,14.50
2009,08,05,09,28,14.50
2009,08,05,09,29,14.50
2009,08,05,09,30,14.60
2009,08,05,09,31,14.60
2009,08,05,09,32,14.60
2009,08,05,09,33,14.60
2009,08,05,09,34,14.60
2009,08,05,09,35,14.60
2009,08,05,09,36,14.60
2009,08,05,09,37,14.60
2009,08,05,09,38,14.60
2009,08,05,09,39,14.60
2009,08,05,09,40,14.60
2009,08,05,09,41,14.60
2009,08,05,09,42,14.70
2009,08,05,09,43,14.70
2009,08,05,09,44,14.70
2009,08,05,09,45,14.70
2009,08,05,09,46,14.70
2009,08,05,09,47,14.70
2009,08,05,09,48,14.80
2009,08,05,09,49,14.80
2009,08,05,09,50,14.80
2009,08,05,09,51,14.80
2009,08,05,09,52,14.90
2009,08,05,09,53,14.90
2009,08,05,09,54,14.90
2009,08,05,09,55,14.90
2009,08,05,09,56,14.90
2009,08,05,09,57,15.00
2009,08,05,09,58,15.00
2009,08,05,09,59,15.00
2009,08,05,10,00,15.00
2009,08,05,10,01,15.00
2009,08,05,10,02,15.00
2009,08,05,10,03,15.00
2009,08,05,10,04,15.00
2009,08,05,10,05,15.00
2009,08,05,10,06,15.00
2009,08,05,10,07,15.00
2009,08,05,10,08,15.00
2009,08,05,10,09,15.00
2009,08,05,10,10,15.00
2009,08,05,10,11,15.00
2009,08,05,10,12,15.00
2009,08,05,10,13,15.10
2009,08,05,10,14,15.10
2009,08,05,10,15,15.20
2009,08,05,10,16,15.20
2009,08,05,10,17,15.20
2009,08,05,10,18,15.20
2009,08,05,10,19,15.20
2009,08,05,10,20,15.20
2009,08,05,10,21,15.20
2009,08,05,10,22,15.20
2009,08,05,10,23,15.20
2009,08,05,10,24,15.20
2009,08,05,10,25,15.20
2009,08,05,10,26,15.20
2009,08,05,10,27,15.20
2009,08,05,10,28,15.30
2009,08,05,10,29,15.20
2009,08,05,10,30,15.30
2009,08,05,10,31,15.30
2009,08,05,10,32,15.30
2009,08,05,10,33,15.30
2009,08,05,10,34,15.30
2009,08,05,10,35,15.30
2009,08,05,10,36,15.40
2009,08,05,10,37,15.40
2009,08,05,10,38,15.40
2009,08,05,10,39,15.40
2009,08,05,10,40,15.40
2009,08,05,10,41,15.40
2009,08,05,10,42,15.40
2009,08,05,10,43,15.40
2009,08,05,10,44,15.40
2009,08,05,10,45,15.40
2009,08,05,10,46,15.40
2009,08,05,10,47,15.50
2009,08,05,10,48,15.50
2009,08,05,10,49,15.50
2009,08,05,10,50,15.50
2009,08,05,10,51,15.60
2009,08,05,10,52,15.60
2009,08,05,10,53,15.60
2009,08,05,10,54,15.60
2009,08,05,10,55,15.70
2009,08,05,10,56,15.70
2009,08,05,10,57,15.70
2009,08,05,10,58,15.80
2009,08,05,10,59,15.80
2009,08,05,11,00,15.80
2009,08,05,11,01,15.90
2009,08,05,11,02,15.90
2009,08,05,11,03,15.90
2009,08,05,11,04,15.90
2009,08,05,11,05,15.90
2009,08,05,11,06,15.90
2009,08,05,11,07,15.90
2009,08,05,11,08,15.90
2009,08,05,11,09,15.90
2009,08,05,11,10,15.90
2009,08,05,11,11,15.90
2009,08,05,11,12,15.90
2009,08,05,11,13,16.00
2009,08,05,11,14,16.00
2009,08,05,11,15,16.10
2009,08,05,11,16,16.10
2009,08,05,11,17,16.10
2009,08,05,11,18,16.20
2009,08,05,11,19,16.20
2009,08,05,11,20,16.30
2009,08,05,11,21,16.30
2009,08,05,11,22,16.30
2009,08,05,11,23,16.30
2009,08,05,11,24,16.40
2009,08,05,11,25,16.40
2009,08,05,11,26,16.50
2009,08,05,11,27,16.50
2009,08,05,11,28,16.60
2009,08,05,11,29,16.60
2009,08,05,11,30,16.60
2009,08,05,11,31,16.60
2009,08,05,11,32,16.60
2009,08,05,11,33,16.60
2009,08,05,11,34,16.60
2009,08,05,11,35,16.70
2009,08,05,11,36,16.70
2009,08,05,11,37,16.80
2009,08,05,11,38,16.80
2009,08,05,11,39,16.90
2009,08,05,11,40,16.90
2009,08,05,11,41,17.10
2009,08,05,11,42,17.10
2009,08,05,11,43,17.20
2009,08,05,11,44,17.20
2009,08,05,11,45,17.30
2009,08,05,11,46,17.30
2009,08,05,11,47,17.40
2009,08,05,11,48,17.40
2009,08,05,11,49,17.40
2009,08,05,11,50,17.40
2009,08,05,11,51,17.40
2009,08,05,11,52,17.50
2009,08,05,11,53,17.40
2009,08,05,11,54,17.50
2009,08,05,11,55,17.60
2009,08,05,11,56,17.60
2009,08,05,11,57,17.60
2009,08,05,11,58,17.70
2009,08,05,11,59,17.70
2009,08,05,12,00,17.70
2009,08,05,12,01,17.70
2009,08,05,12,02,17.80
2009,08,05,12,03,17.80
2009,08,05,12,04,17.90
2009,08,05,12,05,18.00
2009,08,05,12,06,18.10
2009,08,05,12,07,18.10
2009,08,05,12,08,18.20
2009,08,05,12,09,18.30
2009,08,05,12,10,18.30
2009,08,05,12,11,18.40
2009,08,05,12,12,18.40
2009,08,05,12,13,18.40
2009,08,05,12,14,18.40
2009,08,05,12,15,18.40
2009,08,05,12,16,18.50
2009,08,05,12,17,18.50
2009,08,05,12,18,18.50
2009,08,05,12,19,18.40
2009,08,05,12,20,18.30
2009,08,05,12,21,18.30
2009,08,05,12,22,18.30
2009,08,05,12,23,18.30
2009,08,05,12,24,18.30
2009,08,05,12,25,18.30
2009,08,05,12,26,18.30
2009,08,05,12,27,18.40
2009,08,05,12,28,18.40
2009,08,05,12,29,18.50
2009,08,05,12,30,18.50
2009,08,05,12,31,18.60
2009,08,05,12,32,18.60
2009,08,05,12,33,18.60
2009,08,05,12,34,18.60
2009,08,05,12,35,18.60
2009,08,05,12,36,18.70
2009,08,05,12,37,18.80
2009,08,05,12,38,18.80
2009,08,05,12,39,18.90
2009,08,05,12,40,18.90
2009,08,05,12,41,19.00
2009,08,05,12,42,19.10
2009,08,05,12,43,19.20
2009,08,05,12,44,19.20
2009,08,05,12,45,19.30
2009,08,05,12,46,19.40
2009,08,05,12,47,19.40
2009,08,05,12,48,19.50
2009,08,05,12,49,19.50
2009,08,05,12,50,19.50
2009,08,05,12,51,19.50
2009,08,05,12,52,19.40
2009,08,05,12,53,19.40
2009,08,05,12,54,19.40
2009,08,05,12,55,19.40
2009,08,05,12,56,19.60
2009,08,05,12,57,19.60
2009,08,05,12,58,19.60
2009,08,05,12,59,19.60
2009,08,05,13,00,19.60
2009,08,05,13,01,19.60
2009,08,05,13,02,19.60
2009,08,05,13,03,19.60
2009,08,05,13,04,19.60
2009,08,05,13,05,19.60
2009,08,05,13,06,19.60
2009,08,05,13,07,19.60
2009,08,05,13,08,19.60
2009,08,05,13,09,19.60
2009,08,05,13,10,19.60
2009,08,05,13,11,19.60
2009,08,05,13,12,19.60
2009,08,05,13,13,19.60
2009,08,05,13,14,19.70
2009,08,05,13,15,19.70
2009,08,05,13,16,19.80
2009,08,05,13,17,19.80
2009,08,05,13,18,19.80
2009,08,05,13,19,19.80
2009,08,05,13,20,19.80
2009,08,05,13,21,19.80
2009,08,05,13,22,19.80
2009,08,05,13,23,19.80
2009,08,05,13,24,19.90
2009,08,05,13,25,19.90
2009,08,05,13,26,19.90
2009,08,05,13,27,19.90
2009,08,05,13,28,19.90
2009,08,05,13,29,19.90
2009,08,05,13,30,20.00
2009,08,05,13,31,20.10
2009,08,05,13,32,20.20
2009,08,05,13,33,20.20
2009,08,05,13,34,20.20
2009,08,05,13,35,20.20
2009,08,05,13,36,20.20
2009,08,05,13,37,20.30
2009,08,05,13,38,20.40
2009,08,05,13,39,20.40
2009,08,05,13,40,20.40
2009,08,05,13,41,20.50
2009,08,05,13,42,20.60
2009,08,05,13,43,20.60
2009,08,05,13,44,20.70
2009,08,05,13,45,20.80
2009,08,05,13,46,20.90
2009,08,05,13,47,20.90
2009,08,05,13,48,20.80
2009,08,05,13,49,20.80
2009,08,05,13,50,20.80
2009,08,05,13,51,20.70
2009,08,05,13,52,20.70
2009,08,05,13,53,20.70
2009,08,05,13,54,20.70
2009,08,05,13,55,20.70
2009,08,05,13,56,20.80
2009,08,05,13,57,20.80
2009,08,05,13,58,20.80
2009,08,05,13,59,20.90
2009,08,05,14,00,20.90
2009,08,05,14,01,20.90
2009,08,05,14,02,20.90
2009,08,05,14,03,20.90
2009,08,05,14,04,20.90
2009,08,05,14,05,21.10
2009,08,05,14,06,21.10
2009,08,05,14,07,21.20
2009,08,05,14,08,21.20
2009,08,05,14,09,21.20
2009,08,05,14,10,21.20
2009,08,05,14,11,21.20
2009,08,05,14,12,21.20
2009,08,05,14,13,21.30
2009,08,05,14,14,21.30
2009,08,05,14,15,21.20
2009,08,05,14,16,21.20
2009,08,05,14,17,21.20
2009,08,05,14,18,21.20
2009,08,05,14,19,21.20
2009,08,05,14,20,21.30
2009,08,05,14,21,21.30
2009,08,05,14,22,21.30
2009,08,05,14,23,21.30
2009,08,05,14,24,21.30
2009,08,05,14,25,21.40
2009,08,05,14,26,21.40
2009,08,05,14,27,21.40
2009,08,05,14,28,21.40
2009,08,05,14,29,21.40
2009,08,05,14,30,21.40
2009,08,05,14,31,21.40
2009,08,05,14,32,21.50
2009,08,05,14,33,21.60
2009,08,05,14,34,21.60
2009,08,05,14,35,21.60
2009,08,05,14,36,21.60
2009,08,05,14,37,21.70
2009,08,05,14,38,21.60
2009,08,05,14,39,21.70
2009,08,05,14,40,21.70
2009,08,05,14,41,21.80
2009,08,05,14,42,21.80
2009,08,05,14,43,21.80
2009,08,05,14,44,21.90
2009,08,05,14,45,21.90
2009,08,05,14,46,22.00
2009,08,05,14,47,22.10
2009,08,05,14,48,22.10
2009,08,05,14,49,22.20
2009,08,05,14,50,22.20
2009,08,05,14,51,22.20
2009,08,05,14,52,22.20
2009,08,05,14,53,22.20
2009,08,05,14,54,22.20
2009,08,05,14,55,22.10
2009,08,05,14,56,22.00
2009,08,05,14,57,21.90
2009,08,05,14,58,22.00
2009,08,05,14,59,22.00
2009,08,05,15,00,22.10
2009,08,05,15,01,22.10
2009,08,05,15,02,22.10
2009,08,05,15,03,22.10
2009,08,05,15,04,22.00
2009,08,05,15,05,21.90
2009,08,05,15,06,21.90
2009,08,05,15,07,21.90
2009,08,05,15,08,22.00
2009,08,05,15,09,22.00
2009,08,05,15,10,22.00
2009,08,05,15,11,22.00
2009,08,05,15,12,22.00
2009,08,05,15,13,21.90
2009,08,05,15,14,21.90
2009,08,05,15,15,21.90
2009,08,05,15,16,21.90
2009,08,05,15,17,21.90
2009,08,05,15,18,21.90
2009,08,05,15,19,22.00
2009,08,05,15,20,22.10
2009,08,05,15,21,22.20
2009,08,05,15,22,22.20
2009,08,05,15,23,22.30
2009,08,05,15,24,22.30
2009,08,05,15,25,22.30
2009,08,05,15,26,22.40
2009,08,05,15,27,22.40
2009,08,05,15,28,22.40
2009,08,05,15,29,22.40
2009,08,05,15,30,22.40
2009,08,05,15,31,22.40
2009,08,05,15,32,22.40
2009,08,05,15,33,22.40
2009,08,05,15,34,22.40
2009,08,05,15,35,22.40
2009,08,05,15,36,22.40
2009,08,05,15,37,22.40
2009,08,05,15,38,22.50
2009,08,05,15,39,22.40
2009,08,05,15,40,22.40
2009,08,05,15,41,22.40
2009,08,05,15,42,22.30
2009,08,05,15,43,22.30
2009,08,05,15,44,22.40
2009,08,05,15,45,22.40
2009,08,05,15,46,22.40
2009,08,05,15,47,22.50
2009,08,05,15,48,22.60
2009,08,05,15,49,22.60
2009,08,05,15,50,22.60
2009,08,05,15,51,22.60
2009,08,05,15,52,22.50
2009,08,05,15,53,22.50
2009,08,05,15,54,22.60
2009,08,05,15,55,22.60
2009,08,05,15,56,22.60
2009,08,05,15,57,22.50
2009,08,05,15,58,22.40
2009,08,05,15,59,22.40
2009,08,05,16,00,22.40
2009,08,05,16,01,22.40
2009,08,05,16,02,22.40
2009,08,05,16,03,22.40
2009,08,05,16,04,22.30
2009,08,05,16,05,22.30
2009,08,05,16,06,22.20
2009,08,05,16,07,22.20
2009,08,05,16,08,22.20
2009,08,05,16,09,22.10
2009,08,05,16,10,22.10
2009,08,05,16,11,22.10
2009,08,05,16,12,22.10
2009,08,05,16,13,22.10
2009,08,05,16,14,22.10
2009,08,05,16,15,22.10
2009,08,05,16,16,22.10
2009,08,05,16,17,22.10
2009,08,05,16,18,22.10
2009,08,05,16,19,22.10
2009,08,05,16,20,22.00
2009,08,05,16,21,21.90
2009,08,05,16,22,21.90
2009,08,05,16,23,21.90
2009,08,05,16,24,21.90
2009,08,05,16,25,21.90
2009,08,05,16,26,22.00
2009,08,05,16,27,22.10
2009,08,05,16,28,22.10
2009,08,05,16,29,22.10
2009,08,05,16,30,22.20
2009,08,05,16,31,22.20
2009,08,05,16,32,22.20
2009,08,05,16,33,22.20
2009,08,05,16,34,22.20
2009,08,05,16,35,22.10
2009,08,05,16,36,22.00
2009,08,05,16,37,22.00
2009,08,05,16,38,22.00
2009,08,05,16,39,21.90
2009,08,05,16,40,21.90
2009,08,05,16,41,21.90
2009,08,05,16,42,22.00
2009,08,05,16,43,22.10
2009,08,05,16,44,22.10
2009,08,05,16,45,22.00
2009,08,05,16,46,22.00
2009,08,05,16,47,22.00
2009,08,05,16,48,21.90
2009,08,05,16,49,21.80
2009,08,05,16,50,21.80
2009,08,05,16,51,21.70
2009,08,05,16,52,21.70
2009,08,05,16,53,21.80
2009,08,05,16,54,21.80
2009,08,05,16,55,21.80
2009,08,05,16,56,21.80
2009,08,05,16,57,21.70
2009,08,05,16,58,21.70
2009,08,05,16,59,21.70
2009,08,05,17,00,21.70
2009,08,05,17,01,21.70
2009,08,05,17,02,21.70
2009,08,05,17,03,21.80
2009,08,05,17,04,21.80
2009,08,05,17,05,21.80
2009,08,05,17,06,21.80
2009,08,05,17,07,21.80
2009,08,05,17,08,21.80
2009,08,05,17,09,21.70
2009,08,05,17,10,21.70
2009,08,05,17,11,21.70
2009,08,05,17,12,21.60
2009,08,05,17,13,21.60
2009,08,05,17,14,21.50
2009,08,05,17,15,21.50
2009,08,05,17,16,21.50
2009,08,05,17,17,21.60
2009,08,05,17,18,21.60
2009,08,05,17,19,21.60
2009,08,05,17,20,21.60
2009,08,05,17,21,21.50
2009,08,05,17,22,21.30
2009,08,05,17,23,21.30
2009,08,05,17,24,21.30
2009,08,05,17,25,21.30
2009,08,05,17,26,21.30
2009,08,05,17,27,21.30
2009,08,05,17,28,21.20
2009,08,05,17,29,21.20
2009,08,05,17,30,21.20
2009,08,05,17,31,21.20
2009,08,05,17,32,21.20
2009,08,05,17,33,21.20
2009,08,05,17,34,21.20
2009,08,05,17,35,21.20
2009,08,05,17,36,21.20
2009,08,05,17,37,21.10
2009,08,05,17,38,21.10
2009,08,05,17,39,21.10
2009,08,05,17,40,21.10
2009,08,05,17,41,21.00
2009,08,05,17,42,20.90
2009,08,05,17,43,20.90
2009,08,05,17,44,20.90
2009,08,05,17,45,20.90
2009,08,05,17,46,20.90
2009,08,05,17,47,20.90
2009,08,05,17,48,20.90
2009,08,05,17,49,20.80
2009,08,05,17,50,20.80
2009,08,05,17,51,20.80
2009,08,05,17,52,20.80
2009,08,05,17,53,20.70
2009,08,05,17,54,20.70
2009,08,05,17,55,20.70
2009,08,05,17,56,20.70
2009,08,05,17,57,20.70
2009,08,05,17,58,20.70
2009,08,05,17,59,20.60
2009,08,05,18,00,20.60
2009,08,05,18,01,20.60
2009,08,05,18,02,20.60
2009,08,05,18,03,20.60
2009,08,05,18,04,20.60
2009,08,05,18,05,20.50
2009,08,05,18,06,20.50
2009,08,05,18,07,20.40
2009,08,05,18,08,20.40
2009,08,05,18,09,20.30
2009,08,05,18,10,20.30
2009,08,05,18,11,20.30
2009,08,05,18,12,20.30
2009,08,05,18,13,20.20
2009,08,05,18,14,20.20
2009,08,05,18,15,20.20
2009,08,05,18,16,20.20
2009,08,05,18,17,20.20
2009,08,05,18,18,20.20
2009,08,05,18,19,20.20
2009,08,05,18,20,20.20
2009,08,05,18,21,20.20
2009,08,05,18,22,20.20
2009,08,05,18,23,20.10
2009,08,05,18,24,20.10
2009,08,05,18,25,20.00
2009,08,05,18,26,20.00
2009,08,05,18,27,20.00
2009,08,05,18,28,20.00
2009,08,05,18,29,19.90
2009,08,05,18,30,19.90
2009,08,05,18,31,19.90
2009,08,05,18,32,19.90
2009,08,05,18,33,19.90
2009,08,05,18,34,19.90
2009,08,05,18,35,19.90
2009,08,05,18,36,19.90
2009,08,05,18,37,19.80
2009,08,05,18,38,19.80
2009,08,05,18,39,19.80
2009,08,05,18,40,19.80
2009,08,05,18,41,19.80